[[{"header":{"parameterUnit":"m.s-1","parameterCategory":2,"la1":30.2991,"la2":30.254,"lo1":-89.0895,"lo2":-89.0444,"dy":0.0017,"dx":0.0017,"nx":28,"ny":28,"refTime":"2023-09-24T09:00:00:Z","depth":"0","parameterNumber":2,"parameterNumberName":"U-component_of_CURRENTS"},"data":[0,0,0,0,0,0,0,0,0,0,0,0,0,0,0,0,0,0,0,0,0,0,0,0,0,0,0,0,0,0,0,0,0,0,0,0,0,0,0,0,0,0,0,0,0,0,0,0,0,0,0,0,0,0,0,0,0,0,-0.227,-0.227,0,-0.228,-0.228,-0.228,-0.2281,-0.2281,-0.2281,-0.2281,-0.2215,-0.2213,-0.2211,0,0,0,0,0,0,0,0,0,0,0,0,0,-0.2208,-0.2209,-0.227,-0.227,-0.227,-0.2281,-0.228,-0.228,-0.2281,-0.2281,-0.2281,-0.2281,-0.2215,-0.2213,-0.2211,0,0,0,0,0,0,0,0,0,0,0,0,0,-0.2225,-0.2209,-0.227,-0.2274,-0.2275,-0.2281,-0.228,-0.228,-0.2281,-0.2281,-0.2281,-0.2281,-0.2216,-0.2213,-0.221,-0.2187,0,0,-0.2201,-0.22,0,0,0,0,0,0,0,0,-0.2224,-0.2227,-0.2273,-0.2274,-0.2275,-0.2282,-0.2234,-0.2246,-0.2281,-0.2275,-0.2281,-0.2282,-0.2232,-0.2228,-0.2226,-0.2184,-0.2181,-0.2201,-0.2199,-0.2198,-0.2197,0,0,0,0,0,0,0,-0.2223,-0.2226,-0.2271,-0.2274,-0.2275,-0.2262,-0.2265,-0.2236,-0.2248,-0.2276,-0.2277,-0.2283,-0.2232,-0.2229,-0.2224,-0.218,-0.2201,-0.2199,-0.2197,-0.2196,-0.2115,-0.2115,0,0,0,0,0,0,-0.223,-0.2226,-0.227,-0.2271,-0.2253,-0.2263,-0.2266,-0.2277,-0.225,-0.2248,-0.2283,-0.2283,-0.2233,-0.2227,-0.2222,-0.2207,-0.2198,-0.2195,-0.2194,-0.2115,-0.2115,-0.2115,0,0,0,0,0,0,-0.2229,-0.2234,-0.227,-0.2251,-0.2255,-0.2265,-0.2276,-0.2277,-0.2275,-0.2257,-0.2252,-0.228,-0.2233,-0.2226,-0.2196,-0.2203,-0.2194,-0.2192,-0.2116,-0.2115,-0.2115,-0.2167,0,0,0,0,0,0,-0.2227,-0.2234,-0.2232,-0.2252,-0.2256,-0.2272,-0.2277,-0.2277,-0.228,-0.228,-0.2253,-0.2247,-0.2233,-0.2201,-0.2193,-0.2199,-0.2189,-0.2116,-0.2116,-0.2115,-0.2166,-0.2168,-0.2171,0,0,0,0,0,-0.2225,-0.2224,-0.2232,-0.2237,-0.2258,-0.2272,-0.2272,-0.2278,-0.2279,-0.2276,-0.2259,-0.2248,-0.2191,-0.2198,-0.2189,-0.2195,-0.2117,-0.2116,-0.2115,-0.2165,-0.2168,-0.2171,0,0,0,0,0,0,-0.2196,-0.2225,-0.2234,-0.2242,-0.2256,-0.2273,-0.2266,-0.2276,-0.2261,-0.2255,-0.224,-0.2232,-0.221,-0.2188,-0.2196,-0.2167,-0.2153,-0.215,-0.2194,-0.2196,-0.2198,-0.2219,-0.2187,0,0,0,0,0,-0.2191,-0.2195,-0.2225,-0.2229,-0.2235,-0.225,-0.2252,-0.2261,-0.2259,-0.2253,-0.2239,-0.2216,-0.2199,-0.2187,-0.2162,-0.2142,-0.2164,-0.2139,-0.2142,-0.2144,-0.2153,-0.2201,-0.221,-0.2112,-0.2112,-0.2112,0,0,-0.218,-0.2197,-0.2198,-0.2222,-0.2229,-0.2247,-0.225,-0.2256,-0.2272,-0.2245,-0.2241,-0.2219,-0.2194,-0.2179,-0.2167,-0.2162,-0.2183,-0.2143,-0.2145,-0.2153,-0.2201,-0.2212,-0.2221,-0.2111,-0.2111,-0.2111,0,0,-0.2169,-0.2177,-0.218,-0.2196,-0.2214,-0.223,-0.2235,-0.2251,-0.2254,-0.225,-0.2239,-0.2227,-0.2191,-0.2189,-0.2181,-0.2177,-0.2192,-0.216,-0.2192,-0.2239,-0.2249,-0.2257,-0.2309,-0.2321,-0.2164,-0.2164,-0.2164,0,-0.2158,-0.2174,-0.2182,-0.2196,-0.2215,-0.2227,-0.2248,-0.2253,-0.2259,-0.2271,-0.2251,-0.2235,-0.2205,-0.2216,-0.221,-0.2187,-0.2216,-0.2189,-0.2247,-0.2255,-0.2264,-0.2314,-0.2327,-0.2167,-0.2166,-0.2166,-0.2166,0,-0.216,-0.2173,-0.2175,-0.2206,-0.2222,-0.2236,-0.2263,-0.227,-0.2276,-0.2293,-0.2298,-0.2267,-0.2264,-0.2249,-0.2224,-0.226,-0.2265,-0.2247,-0.225,-0.2278,-0.2328,-0.2341,-0.217,-0.2169,-0.2168,-0.2168,0,0,-0.215,-0.2174,-0.2177,-0.2199,-0.2232,-0.2253,-0.2276,-0.2315,-0.2349,-0.2337,-0.2384,-0.2341,-0.2334,-0.2322,-0.2297,-0.2326,-0.2398,-0.2308,-0.2309,-0.2378,-0.2516,-0.2332,-0.233,-0.2399,-0.2401,-0.2403,-0.2533,0,-0.2156,-0.218,-0.2199,-0.2238,-0.2258,-0.2288,-0.2319,-0.2353,-0.2375,-0.2417,-0.2407,-0.2423,-0.2361,-0.2362,-0.2381,-0.2398,-0.2433,-0.2365,-0.2461,-0.2464,-0.2314,-0.2338,-0.2115,-0.2194,-0.2546,-0.2548,-0.255,0,-0.2159,-0.2182,-0.2206,-0.2269,-0.2284,-0.2311,-0.238,-0.241,-0.2467,-0.2485,-0.2505,-0.2504,-0.2531,-0.2476,-0.2537,-0.2499,-0.2506,-0.2519,-0.2524,-0.2343,-0.2304,-0.2219,-0.2205,-0.2181,-0.257,-0.2569,-0.2567,0,-0.214,-0.2195,-0.2214,-0.2232,-0.2295,-0.2323,-0.2365,-0.2426,-0.246,-0.2533,-0.2567,-0.2605,-0.2624,-0.2649,-0.2624,-0.2605,-0.2701,-0.2685,-0.2537,-0.2526,-0.2346,-0.2313,-0.233,-0.274,-0.274,-0.274,-0.2739,0,-0.2133,-0.2156,-0.2208,-0.2215,-0.2273,-0.2322,-0.2383,-0.2431,-0.2503,-0.254,-0.2591,-0.2616,-0.2667,-0.2702,-0.2688,-0.2634,-0.2752,-0.2548,-0.2542,-0.2353,-0.232,-0.2295,-0.232,-0.2745,-0.2744,-0.2743,-0.2742,0,-0.2089,-0.2115,-0.215,-0.2221,-0.225,-0.2287,-0.2378,-0.2411,-0.2496,-0.2549,-0.2571,-0.2659,-0.2674,-0.2702,-0.2758,-0.2692,-0.2606,-0.2633,-0.2398,-0.2356,-0.2136,-0.2172,-0.2187,-0.2144,-0.2507,-0.2503,-0.25,0,-0.2062,-0.2066,-0.2136,-0.2151,-0.2178,-0.2245,-0.2275,-0.2379,-0.2407,-0.2538,-0.2545,-0.2612,-0.2541,-0.2562,-0.2484,-0.2434,-0.2472,-0.2251,-0.214,-0.2088,-0.2129,-0.2167,-0.2135,-0.1958,-0.195,-0.1944,-0.1939,0,-0.2009,-0.2023,-0.2035,-0.2074,-0.2105,-0.2149,-0.2202,-0.2208,-0.2309,-0.232,-0.2309,-0.2272,-0.2285,-0.2096,-0.2066,-0.2031,-0.2134,-0.2118,-0.2143,-0.1747,-0.1719,-0.1683,-0.1937,-0.1885,-0.189,-0.1894,-0.1897,-0.1899,-0.195,-0.1937,-0.1938,-0.1968,-0.2004,-0.1983,-0.1931,-0.1958,-0.1913,-0.1857,-0.1966,-0.1828,-0.1791,-0.1646,-0.1642,-0.1551,-0.1697,-0.1498,-0.1571,-0.1636,-0.1491,-0.1601,-0.1471,-0.1474,-0.1477,-0.1479,-0.1481,0,-0.1856,-0.183,-0.184,-0.1835,-0.1812,-0.1874,-0.1824,-0.1712,-0.1539,-0.1525,-0.1418,-0.1253,-0.1089,-0.1154,-0.107,-0.1023,-0.1061,-0.107,-0.1107,-0.1123,-0.1271,-0.1134,-0.0825,-0.0825,-0.0825,-0.0825,-0.0825,-0.0825,-0.1794,-0.1735,-0.1726,-0.1632,-0.1624,-0.1481,-0.1383,-0.1224,-0.1136,-0.0894,-0.0792,-0.0773,-0.0839,-0.0863,-0.082,-0.0802,-0.0877,-0.079,-0.0965,-0.1079,-0.1127,-0.1172,-0.1048,-0.0727,-0.0727,-0.0706,-0.0706,-0.0706]},{"header":{"parameterUnit":"m.s-1","parameterCategory":2,"la1":30.2991,"la2":30.254,"lo1":-89.0895,"lo2":-89.0444,"dy":0.0017,"dx":0.0017,"nx":28,"ny":28,"refTime":"2023-09-24T09:00:00:Z","depth":"0","parameterNumber":3,"parameterNumberName":"V-component_of_CURRENTS"},"data":[0,0,0,0,0,0,0,0,0,0,0,0,0,0,0,0,0,0,0,0,0,0,0,0,0,0,0,0,0,0,0,0,0,0,0,0,0,0,0,0,0,0,0,0,0,0,0,0,0,0,0,0,0,0,0,0,0,0,-0.0482,-0.0482,0,-0.0392,-0.039,-0.0389,-0.0331,-0.0331,-0.0331,-0.0331,-0.0198,-0.0195,-0.0192,0,0,0,0,0,0,0,0,0,0,0,0,0,-0.0587,-0.0585,-0.0483,-0.0482,-0.0481,-0.0392,-0.039,-0.0389,-0.0332,-0.0331,-0.0331,-0.0331,-0.0199,-0.0195,-0.0191,0,0,0,0,0,0,0,0,0,0,0,0,0,-0.0522,-0.0585,-0.0483,-0.0442,-0.0438,-0.0392,-0.039,-0.0389,-0.0332,-0.0331,-0.0331,-0.0331,-0.0201,-0.0196,-0.0191,-0.0167,0,0,-0.0176,-0.0173,0,0,0,0,0,0,0,0,-0.0526,-0.0518,-0.0449,-0.0445,-0.044,-0.0374,-0.0379,-0.0313,-0.0332,-0.037,-0.0331,-0.033,-0.0254,-0.0245,-0.0227,-0.016,-0.0155,-0.0175,-0.0172,-0.017,-0.0169,0,0,0,0,0,0,0,-0.053,-0.0522,-0.0445,-0.0448,-0.0442,-0.0422,-0.0412,-0.0366,-0.0313,-0.0367,-0.0363,-0.0355,-0.0251,-0.0232,-0.0223,-0.0153,-0.0175,-0.0171,-0.0168,-0.0166,-0.0083,-0.0084,0,0,0,0,0,0,-0.0545,-0.0526,-0.0448,-0.0443,-0.0484,-0.042,-0.041,-0.0394,-0.0315,-0.0303,-0.0355,-0.0353,-0.0241,-0.0229,-0.0219,-0.0208,-0.017,-0.0165,-0.0162,-0.0083,-0.0084,-0.0085,0,0,0,0,0,0,-0.0548,-0.0539,-0.0452,-0.0484,-0.0471,-0.0419,-0.0402,-0.0393,-0.0374,-0.0307,-0.0294,-0.0347,-0.024,-0.0226,-0.0188,-0.0202,-0.0163,-0.0159,-0.0082,-0.0083,-0.0084,-0.0173,0,0,0,0,0,0,-0.0551,-0.054,-0.0537,-0.0485,-0.047,-0.0434,-0.0402,-0.0391,-0.037,-0.0366,-0.0295,-0.0282,-0.0239,-0.0196,-0.0183,-0.0194,-0.0155,-0.0081,-0.0082,-0.0084,-0.0169,-0.0177,-0.0184,0,0,0,0,0,-0.0555,-0.056,-0.0537,-0.0528,-0.0466,-0.0435,-0.0426,-0.0387,-0.0371,-0.0368,-0.0324,-0.0285,-0.0196,-0.0192,-0.0177,-0.0187,-0.008,-0.0082,-0.0084,-0.0166,-0.0175,-0.0184,0,0,0,0,0,0,-0.0606,-0.0553,-0.0527,-0.0515,-0.048,-0.0426,-0.0421,-0.0393,-0.0355,-0.0351,-0.0287,-0.0272,-0.0247,-0.0205,-0.0202,-0.017,-0.0134,-0.0133,-0.0202,-0.0211,-0.0218,-0.0238,-0.0151,0,0,0,0,0,-0.0614,-0.0599,-0.0548,-0.0537,-0.0523,-0.0472,-0.0455,-0.0429,-0.0388,-0.0371,-0.0322,-0.0276,-0.0242,-0.0218,-0.0179,-0.0154,-0.0126,-0.0153,-0.0161,-0.0168,-0.0175,-0.0166,-0.0174,-0.009,-0.009,-0.009,0,0,-0.0629,-0.0599,-0.0589,-0.0546,-0.0515,-0.0507,-0.0461,-0.0442,-0.0436,-0.0362,-0.034,-0.0298,-0.0243,-0.0222,-0.0207,-0.0187,-0.0173,-0.017,-0.0176,-0.018,-0.0169,-0.0177,-0.0184,-0.0092,-0.0091,-0.0091,0,0,-0.0664,-0.0626,-0.0631,-0.0608,-0.057,-0.0536,-0.0535,-0.0485,-0.0464,-0.0435,-0.0391,-0.0361,-0.0295,-0.0268,-0.0244,-0.0268,-0.0216,-0.0254,-0.0302,-0.0294,-0.0301,-0.0306,-0.0271,-0.0273,-0.0254,-0.0255,-0.0255,0,-0.0687,-0.068,-0.0629,-0.0633,-0.0624,-0.0556,-0.0568,-0.0535,-0.048,-0.047,-0.0441,-0.0371,-0.0321,-0.0307,-0.0315,-0.0285,-0.0263,-0.0273,-0.0305,-0.031,-0.0315,-0.0277,-0.0278,-0.0259,-0.0259,-0.0258,-0.0258,0,-0.0727,-0.0723,-0.0727,-0.0703,-0.0687,-0.0685,-0.0637,-0.0618,-0.058,-0.0545,-0.052,-0.0456,-0.0416,-0.0398,-0.0358,-0.0369,-0.0336,-0.032,-0.0286,-0.0329,-0.0285,-0.0285,-0.0266,-0.0264,-0.0263,-0.0261,0,0,-0.0768,-0.0759,-0.0758,-0.0766,-0.0727,-0.0718,-0.0711,-0.0686,-0.069,-0.0628,-0.0629,-0.0569,-0.053,-0.0501,-0.0451,-0.0438,-0.0441,-0.0396,-0.0394,-0.0367,-0.0407,-0.0265,-0.025,-0.0435,-0.0436,-0.0436,-0.036,0,-0.0814,-0.0851,-0.0826,-0.0851,-0.0864,-0.0813,-0.0813,-0.0782,-0.0744,-0.0724,-0.0657,-0.0631,-0.0569,-0.0553,-0.0532,-0.0461,-0.0446,-0.0462,-0.0363,-0.036,-0.0235,-0.0248,-0.021,-0.0129,-0.0359,-0.0359,-0.0358,0,-0.0856,-0.0878,-0.0923,-0.093,-0.0931,-0.0933,-0.0926,-0.0915,-0.0869,-0.084,-0.0801,-0.0742,-0.0693,-0.0644,-0.0553,-0.0566,-0.05,-0.0445,-0.044,-0.0279,-0.0218,-0.0124,-0.0118,-0.0036,-0.0357,-0.0357,-0.0357,0,-0.0911,-0.0937,-0.098,-0.0982,-0.0983,-0.0993,-0.0982,-0.0953,-0.095,-0.0909,-0.0903,-0.0833,-0.0782,-0.0712,-0.0553,-0.0573,-0.0439,-0.0454,-0.0267,-0.0255,-0.0186,-0.0166,-0.0094,-0.0414,-0.0415,-0.0415,-0.0415,0,-0.0959,-0.0989,-0.101,-0.1032,-0.108,-0.1051,-0.1082,-0.1063,-0.1038,-0.1025,-0.0963,-0.0919,-0.08,-0.0689,-0.0581,-0.0382,-0.0454,-0.027,-0.0228,-0.021,-0.0195,-0.0087,-0.0065,-0.0412,-0.0413,-0.0413,-0.0414,0,-0.0998,-0.1013,-0.107,-0.11,-0.1107,-0.1137,-0.1139,-0.1157,-0.1125,-0.1108,-0.1095,-0.0982,-0.0806,-0.0656,-0.0496,-0.039,-0.0161,-0.0155,-0.0113,-0.0066,0.0171,0.0188,0.0315,0.0378,0.0026,0.003,0.0033,0,-0.1015,-0.1054,-0.1125,-0.1166,-0.1179,-0.121,-0.1229,-0.1201,-0.1205,-0.1118,-0.1106,-0.0939,-0.0754,-0.0444,-0.0236,-0.0007,0.0025,0.0136,0.0102,0.0205,0.0251,0.0241,0.0281,0.0152,0.0156,0.0159,0.0162,0,-0.1055,-0.109,-0.114,-0.1236,-0.1277,-0.1313,-0.1324,-0.1325,-0.1264,-0.12,-0.1033,-0.0869,-0.0543,-0.0218,0.0077,0.0191,0.0209,0.0213,0.0281,0.0338,0.0365,0.0439,0.0098,0.0191,0.0189,0.0186,0.0185,0.0184,-0.1081,-0.1135,-0.1214,-0.1303,-0.1357,-0.1384,-0.1359,-0.1321,-0.1247,-0.1065,-0.0935,-0.0596,-0.0238,0.0215,0.0341,0.0567,0.0491,0.0592,0.0597,0.0574,0.0655,0.0417,0.0591,0.0591,0.059,0.059,0.0589,0,-0.111,-0.1178,-0.1271,-0.1363,-0.1427,-0.1433,-0.1399,-0.1313,-0.115,-0.0922,-0.0672,-0.0141,0.0225,0.0506,0.0811,0.0918,0.0882,0.0947,0.0886,0.0903,0.0658,0.0686,0.0936,0.0936,0.0936,0.0936,0.0936,0.0936,-0.1125,-0.1223,-0.1286,-0.1404,-0.1451,-0.1417,-0.136,-0.1189,-0.0982,-0.0539,-0.016,0.014,0.0524,0.0906,0.1153,0.1164,0.1211,0.1214,0.125,0.1025,0.099,0.0955,0.0987,0.1296,0.1297,0.1467,0.1468,0.147]}],[{"header":{"parameterUnit":"m.s-1","parameterCategory":2,"la1":30.2991,"la2":30.254,"lo1":-89.0895,"lo2":-89.0444,"dy":0.0017,"dx":0.0017,"nx":28,"ny":28,"refTime":"2023-09-24T09:00:00:Z","depth":"2","parameterNumber":2,"parameterNumberName":"U-component_of_CURRENTS"},"data":[0,0,0,0,0,0,0,0,0,0,0,0,0,0,0,0,0,0,0,0,0,0,0,0,0,0,0,0,0,0,0,0,0,0,0,0,0,0,0,0,0,0,0,0,0,0,0,0,0,0,0,0,0,0,0,0,0,0,-0.136,-0.136,0,-0.1336,-0.1335,-0.1335,-0.1384,-0.1386,-0.1388,-0.139,-0.1339,-0.1336,-0.1333,0,0,0,0,0,0,0,0,0,0,0,0,0,-0.1296,-0.1297,-0.136,-0.136,-0.136,-0.1336,-0.1335,-0.1334,-0.1383,-0.1386,-0.1388,-0.1391,-0.1341,-0.1337,-0.1333,0,0,0,0,0,0,0,0,0,0,0,0,0,-0.1298,-0.1298,-0.136,-0.1386,-0.1389,-0.1336,-0.1335,-0.1334,-0.1383,-0.1386,-0.1389,-0.1392,-0.1342,-0.1337,-0.1332,-0.1237,0,0,-0.1317,-0.1314,0,0,0,0,0,0,0,0,-0.1298,-0.1299,-0.1382,-0.1384,-0.1387,-0.1371,-0.1295,-0.1302,-0.1382,-0.1378,-0.139,-0.1394,-0.1349,-0.1344,-0.1324,-0.1234,-0.1232,-0.1316,-0.1313,-0.1311,-0.131,0,0,0,0,0,0,0,-0.1298,-0.13,-0.1344,-0.1382,-0.1385,-0.1348,-0.1352,-0.1295,-0.1341,-0.1379,-0.1384,-0.139,-0.135,-0.1329,-0.1323,-0.1231,-0.1316,-0.1312,-0.1309,-0.1307,-0.1145,-0.1144,0,0,0,0,0,0,-0.1317,-0.13,-0.1345,-0.1344,-0.1356,-0.1347,-0.1352,-0.1368,-0.1342,-0.1343,-0.1387,-0.1392,-0.1336,-0.1329,-0.1322,-0.1323,-0.1311,-0.1306,-0.1303,-0.1146,-0.1145,-0.1143,0,0,0,0,0,0,-0.1316,-0.1322,-0.1346,-0.1326,-0.1327,-0.1347,-0.1363,-0.1366,-0.1368,-0.135,-0.135,-0.1391,-0.1338,-0.1329,-0.1286,-0.1318,-0.1304,-0.13,-0.1148,-0.1146,-0.1144,-0.1252,0,0,0,0,0,0,-0.1314,-0.1321,-0.1328,-0.1328,-0.1329,-0.1339,-0.1361,-0.1364,-0.1368,-0.1375,-0.1351,-0.1349,-0.134,-0.1293,-0.1281,-0.1311,-0.1296,-0.1149,-0.1147,-0.1145,-0.125,-0.1254,-0.1257,0,0,0,0,0,-0.1312,-0.1315,-0.1329,-0.1334,-0.1343,-0.134,-0.1336,-0.1356,-0.1366,-0.1367,-0.1345,-0.1351,-0.127,-0.1287,-0.1273,-0.1303,-0.1151,-0.1148,-0.1145,-0.1248,-0.1253,-0.1257,0,0,0,0,0,0,-0.1281,-0.1321,-0.1336,-0.1349,-0.1357,-0.1352,-0.1347,-0.1353,-0.1332,-0.1337,-0.132,-0.1314,-0.1289,-0.1256,-0.1275,-0.1242,-0.1215,-0.121,-0.1299,-0.1303,-0.1306,-0.1362,-0.1291,0,0,0,0,0,-0.1279,-0.1299,-0.1322,-0.1329,-0.1336,-0.1337,-0.1334,-0.1349,-0.1336,-0.1332,-0.1315,-0.1285,-0.1255,-0.1252,-0.1207,-0.1177,-0.1211,-0.1185,-0.1189,-0.1193,-0.1223,-0.1285,-0.13,-0.1134,-0.1134,-0.1134,0,0,-0.1267,-0.129,-0.1301,-0.1324,-0.1326,-0.1351,-0.1343,-0.1346,-0.1374,-0.1322,-0.1332,-0.1284,-0.1241,-0.1225,-0.1213,-0.1214,-0.1257,-0.1189,-0.1194,-0.1222,-0.1284,-0.1302,-0.1317,-0.1132,-0.1132,-0.1132,0,0,-0.126,-0.1276,-0.1299,-0.1318,-0.134,-0.1344,-0.1352,-0.1355,-0.1368,-0.1347,-0.1331,-0.1308,-0.1243,-0.1251,-0.1238,-0.1222,-0.1261,-0.1197,-0.1285,-0.1345,-0.1361,-0.1376,-0.1461,-0.1482,-0.1218,-0.1218,-0.1218,0,-0.1247,-0.1292,-0.1298,-0.1333,-0.1362,-0.1353,-0.1392,-0.139,-0.138,-0.1401,-0.1366,-0.1323,-0.1269,-0.1306,-0.1294,-0.1242,-0.1288,-0.1285,-0.1359,-0.1374,-0.1388,-0.147,-0.1493,-0.1223,-0.1222,-0.1222,-0.1222,0,-0.1269,-0.1315,-0.1325,-0.1386,-0.1404,-0.1428,-0.1453,-0.1463,-0.1459,-0.147,-0.1483,-0.1415,-0.1403,-0.1378,-0.1324,-0.1394,-0.1401,-0.1352,-0.1372,-0.1413,-0.1495,-0.1517,-0.123,-0.1228,-0.1227,-0.1226,0,0,-0.1234,-0.1328,-0.1336,-0.1393,-0.1446,-0.1464,-0.1513,-0.1565,-0.1622,-0.1592,-0.1675,-0.159,-0.1563,-0.1543,-0.1493,-0.1541,-0.1648,-0.1492,-0.1492,-0.1619,-0.1821,-0.1563,-0.1562,-0.1628,-0.1631,-0.1634,-0.1849,0,-0.1262,-0.1346,-0.1386,-0.1474,-0.1531,-0.1565,-0.1616,-0.166,-0.1686,-0.1751,-0.173,-0.1745,-0.1628,-0.1623,-0.1651,-0.1637,-0.1707,-0.1597,-0.1723,-0.1728,-0.1529,-0.1577,-0.1422,-0.1575,-0.1871,-0.1874,-0.1877,0,-0.1278,-0.1351,-0.1437,-0.1564,-0.1589,-0.1631,-0.174,-0.1788,-0.1878,-0.1898,-0.1936,-0.1913,-0.1951,-0.1842,-0.191,-0.1849,-0.1842,-0.1848,-0.1855,-0.1596,-0.1508,-0.157,-0.1604,-0.1913,-0.191,-0.1908,-0.1905,0,-0.1257,-0.1388,-0.146,-0.1502,-0.1626,-0.1676,-0.1738,-0.1832,-0.19,-0.2007,-0.2053,-0.2104,-0.2115,-0.2135,-0.2022,-0.2011,-0.2108,-0.2097,-0.1894,-0.1879,-0.1757,-0.172,-0.2191,-0.219,-0.219,-0.2189,-0.2189,0,-0.1274,-0.1338,-0.1461,-0.1503,-0.1626,-0.1693,-0.1817,-0.1887,-0.2004,-0.2063,-0.2114,-0.2132,-0.2182,-0.2189,-0.2134,-0.203,-0.2185,-0.1933,-0.1911,-0.178,-0.1745,-0.2028,-0.2006,-0.2197,-0.2196,-0.2194,-0.2193,0,-0.1233,-0.1302,-0.1418,-0.1563,-0.1617,-0.1704,-0.187,-0.1907,-0.2041,-0.213,-0.2156,-0.2218,-0.2173,-0.2181,-0.2215,-0.2129,-0.2088,-0.2013,-0.1844,-0.1791,-0.1838,-0.1819,-0.1926,-0.1918,-0.1912,-0.1907,-0.1902,0,-0.1223,-0.1259,-0.1449,-0.1509,-0.1576,-0.1717,-0.1751,-0.1905,-0.1951,-0.2101,-0.2098,-0.2137,-0.2017,-0.1987,-0.1887,-0.1824,-0.1902,-0.1666,-0.1575,-0.184,-0.181,-0.1801,-0.179,-0.1517,-0.151,-0.1504,-0.1499,0,-0.1202,-0.1249,-0.1337,-0.1473,-0.1533,-0.1611,-0.1699,-0.1768,-0.1877,-0.1922,-0.1889,-0.1826,-0.1767,-0.1572,-0.1488,-0.1431,-0.1659,-0.1534,-0.1915,-0.1521,-0.1446,-0.1417,-0.1424,-0.1446,-0.1452,-0.1455,-0.1458,-0.146,-0.1168,-0.122,-0.1302,-0.1414,-0.1471,-0.1446,-0.1466,-0.1506,-0.153,-0.1551,-0.158,-0.1425,-0.1442,-0.1158,-0.1089,-0.1096,-0.1217,-0.122,-0.1245,-0.1275,-0.1101,-0.1008,-0.0902,-0.0904,-0.0906,-0.0907,-0.0909,0,-0.1107,-0.113,-0.1221,-0.1293,-0.1254,-0.1337,-0.1352,-0.1309,-0.1244,-0.1224,-0.1147,-0.0951,-0.0784,-0.0821,-0.0719,-0.07,-0.079,-0.0702,-0.0835,-0.0883,-0.0927,-0.0743,-0.0447,-0.0447,-0.0446,-0.0445,0,0,-0.1071,-0.1072,-0.1106,-0.1041,-0.1068,-0.0974,-0.0953,-0.09,-0.0891,-0.0764,-0.0678,-0.0666,-0.0706,-0.0543,-0.0531,-0.0464,-0.068,-0.0446,-0.0805,-0.1003,-0.1047,-0.1198,-0.0961,0,0,0,0,0]},{"header":{"parameterUnit":"m.s-1","parameterCategory":2,"la1":30.2991,"la2":30.254,"lo1":-89.0895,"lo2":-89.0444,"dy":0.0017,"dx":0.0017,"nx":28,"ny":28,"refTime":"2023-09-24T09:00:00:Z","depth":"2","parameterNumber":3,"parameterNumberName":"V-component_of_CURRENTS"},"data":[0,0,0,0,0,0,0,0,0,0,0,0,0,0,0,0,0,0,0,0,0,0,0,0,0,0,0,0,0,0,0,0,0,0,0,0,0,0,0,0,0,0,0,0,0,0,0,0,0,0,0,0,0,0,0,0,0,0,-0.0296,-0.0295,0,-0.0173,-0.0171,-0.017,-0.0172,-0.0174,-0.0176,-0.0178,-0.0123,-0.012,-0.0117,0,0,0,0,0,0,0,0,0,0,0,0,0,-0.0338,-0.0339,-0.0296,-0.0295,-0.0293,-0.0173,-0.0171,-0.0169,-0.0172,-0.0174,-0.0176,-0.0178,-0.0124,-0.0121,-0.0117,0,0,0,0,0,0,0,0,0,0,0,0,0,-0.0277,-0.0339,-0.0296,-0.0281,-0.0278,-0.0173,-0.0171,-0.0169,-0.0172,-0.0174,-0.0177,-0.0179,-0.0126,-0.0121,-0.0116,-0.0034,0,0,-0.0102,-0.01,0,0,0,0,0,0,0,0,-0.0281,-0.0276,-0.0285,-0.0282,-0.0279,-0.0192,-0.0166,-0.0128,-0.0171,-0.0211,-0.0178,-0.0181,-0.0151,-0.0145,-0.0113,-0.0032,-0.003,-0.0102,-0.0099,-0.0097,-0.0096,0,0,0,0,0,0,0,-0.0286,-0.028,-0.0246,-0.0283,-0.0279,-0.0213,-0.0209,-0.0157,-0.0168,-0.0208,-0.0208,-0.0195,-0.0151,-0.0117,-0.0112,-0.0029,-0.0102,-0.0098,-0.0095,-0.0093,0.0087,0.0089,0,0,0,0,0,0,-0.031,-0.0285,-0.025,-0.0243,-0.0288,-0.0211,-0.0206,-0.0216,-0.0167,-0.0162,-0.0193,-0.0196,-0.0124,-0.0117,-0.011,-0.0032,-0.0097,-0.0093,-0.009,0.0085,0.0088,0.009,0,0,0,0,0,0,-0.0312,-0.0309,-0.0255,-0.026,-0.0249,-0.0209,-0.0219,-0.0212,-0.0205,-0.0155,-0.0152,-0.0197,-0.0126,-0.0117,-0.0063,-0.003,-0.0091,-0.0086,0.0083,0.0086,0.0089,0.0139,0,0,0,0,0,0,-0.0314,-0.0311,-0.033,-0.0263,-0.025,-0.0194,-0.0216,-0.0208,-0.0192,-0.0195,-0.0156,-0.0152,-0.0127,-0.007,-0.0059,-0.0024,-0.0083,0.0081,0.0085,0.0088,0.0135,0.0143,0.015,0,0,0,0,0,-0.0316,-0.0331,-0.0332,-0.0327,-0.0277,-0.0193,-0.0179,-0.0157,-0.019,-0.0166,-0.0143,-0.0155,-0.0039,-0.0064,-0.0051,-0.0015,0.0079,0.0083,0.0088,0.0131,0.0141,0.015,0,0,0,0,0,0,-0.0362,-0.033,-0.033,-0.0338,-0.0271,-0.0194,-0.0182,-0.0166,-0.0126,-0.015,-0.0119,-0.011,-0.0052,-0.0037,-0.0065,0.0048,0.0015,0.0022,0.0043,0.0053,0.0061,0.0021,-0.0079,0,0,0,0,0,-0.0379,-0.0389,-0.0322,-0.0328,-0.0303,-0.0247,-0.0219,-0.0197,-0.015,-0.0138,-0.0104,-0.0071,-0.0013,0.0011,0.0059,0.0129,0.0099,0.0157,0.0165,0.0172,0.0149,0.0146,0.0151,0.0105,0.0105,0.0105,0,0,-0.0401,-0.0384,-0.0391,-0.0338,-0.0299,-0.0227,-0.0237,-0.0197,-0.0135,-0.0136,-0.0068,-0.0043,0.0011,0.009,0.0116,0.01,0.0173,0.0177,0.0183,0.0156,0.0151,0.0155,0.0159,0.0108,0.0107,0.0107,0,0,-0.0417,-0.0431,-0.0426,-0.0366,-0.0304,-0.0243,-0.0236,-0.016,-0.0132,-0.0051,-0.0038,0.0006,0.009,0.0146,0.0182,0.0263,0.0213,0.0269,0.0283,0.0282,0.0285,0.0286,0.0261,0.0261,0.0275,0.0276,0.0276,0,-0.0443,-0.0428,-0.0403,-0.0355,-0.0304,-0.0251,-0.0192,-0.0127,-0.0041,-0.0025,-0.0033,0.0073,0.0125,0.0216,0.025,0.0281,0.0245,0.0244,0.0289,0.029,0.0291,0.0265,0.0263,0.0278,0.0278,0.0278,0.0278,0,-0.0425,-0.0406,-0.0393,-0.0316,-0.0246,-0.0194,-0.009,-0.0045,-0.0018,0.0032,0.0093,0.0164,0.0202,0.0255,0.0283,0.033,0.029,0.0295,0.0256,0.0298,0.0269,0.0266,0.0283,0.0282,0.0281,0.028,0,0,-0.0493,-0.0403,-0.0397,-0.036,-0.0227,-0.0172,-0.0068,0.0032,0.0036,0.0128,0.0137,0.0278,0.0245,0.0283,0.032,0.0347,0.0354,0.0315,0.0314,0.0273,0.0309,0.0389,0.0393,0.0345,0.0345,0.0345,0.0287,0,-0.0483,-0.0416,-0.0349,-0.0254,-0.0203,-0.0112,-0.0032,0.0056,0.0105,0.0126,0.0196,0.0214,0.0281,0.0258,0.0309,0.0326,0.0346,0.0366,0.0288,0.0285,0.0337,0.0394,0.0373,0.0329,0.0284,0.0284,0.0283,0,-0.047,-0.0429,-0.0357,-0.0259,-0.0233,-0.0168,-0.0083,-0.0007,0.0057,0.0069,0.0103,0.0121,0.0188,0.0209,0.0274,0.0266,0.0282,0.0309,0.0307,0.0354,0.0361,0.028,0.0325,0.0278,0.0279,0.0279,0.0279,0,-0.0529,-0.0425,-0.0384,-0.034,-0.022,-0.0196,-0.0137,-0.0056,-0.0054,-0.0011,-0.0049,0.0043,0.0025,0.0093,0.0206,0.019,0.0261,0.0242,0.0335,0.0339,0.0294,0.0296,0.0266,0.0266,0.0267,0.0267,0.0267,0,-0.0533,-0.0497,-0.0434,-0.041,-0.0388,-0.0283,-0.0283,-0.0221,-0.0216,-0.0225,-0.013,-0.012,-0.0017,0.006,0.0159,0.0269,0.0226,0.0336,0.034,0.0316,0.0321,0.0252,0.0251,0.0265,0.0265,0.0265,0.0266,0,-0.0588,-0.0541,-0.0505,-0.0434,-0.0418,-0.0417,-0.0395,-0.0403,-0.0391,-0.0413,-0.0423,-0.0309,-0.0182,-0.0026,0.0087,0.0185,0.0302,0.0353,0.0325,0.033,0.0365,0.0367,0.0373,0.0375,0.0377,0.0379,0.0381,0,-0.0603,-0.0598,-0.0564,-0.0566,-0.0543,-0.0539,-0.053,-0.05,-0.0528,-0.0485,-0.0509,-0.0405,-0.025,-0.0016,0.0168,0.0345,0.0362,0.0403,0.0401,0.0377,0.038,0.0379,0.0379,0.034,0.0342,0.0342,0.0343,0,-0.0638,-0.0652,-0.0637,-0.066,-0.0661,-0.0647,-0.0656,-0.0727,-0.0685,-0.0666,-0.0569,-0.0439,-0.0198,0.0044,0.0276,0.0376,0.038,0.0426,0.0398,0.0352,0.0353,0.0354,0.0353,0.0351,0.035,0.035,0.0349,0.0349,-0.0686,-0.0708,-0.072,-0.0738,-0.0735,-0.0746,-0.0763,-0.0761,-0.0767,-0.071,-0.0576,-0.0307,-0.014,0.0242,0.0375,0.0471,0.0451,0.0463,0.0456,0.045,0.0492,0.0501,0.0531,0.0531,0.0531,0.0531,0.0532,0,-0.0719,-0.0748,-0.078,-0.0783,-0.0778,-0.0778,-0.0818,-0.0818,-0.0787,-0.0623,-0.0457,-0.017,0.0097,0.0281,0.044,0.0522,0.0476,0.0526,0.0445,0.0438,0.0431,0.047,0.0504,0.0504,0.0504,0.0504,0,0,-0.0738,-0.0779,-0.08,-0.0811,-0.0819,-0.0836,-0.0866,-0.0822,-0.0727,-0.0536,-0.0304,-0.0031,0.0182,0.0294,0.0376,0.0451,0.0413,0.0445,0.0458,0.0342,0.0334,0.0388,0.0439,0,0,0,0,0]}],[{"header":{"parameterUnit":"m.s-1","parameterCategory":2,"la1":30.2991,"la2":30.254,"lo1":-89.0895,"lo2":-89.0444,"dy":0.0017,"dx":0.0017,"nx":28,"ny":28,"refTime":"2023-09-24T09:00:00:Z","depth":"4","parameterNumber":2,"parameterNumberName":"U-component_of_CURRENTS"},"data":[0,0,0,0,0,0,0,0,0,0,0,0,0,0,0,0,0,0,0,0,0,0,0,0,0,0,0,0,0,0,0,0,0,0,0,0,0,0,0,0,0,0,0,0,0,0,0,0,0,0,0,0,0,0,0,0,0,0,-0.0501,-0.0502,0,-0.0531,-0.0532,-0.0532,-0.0548,-0.0548,-0.0548,-0.0548,-0.0579,-0.058,-0.058,0,0,0,0,0,0,0,0,0,0,0,0,0,-0.0481,-0.0481,-0.0501,-0.0502,-0.0502,-0.0531,-0.0532,-0.0532,-0.0548,-0.0548,-0.0548,-0.0548,-0.0579,-0.058,-0.0581,0,0,0,0,0,0,0,0,0,0,0,0,0,-0.0497,-0.0481,-0.0501,-0.0515,-0.0516,-0.0531,-0.0532,-0.0532,-0.0548,-0.0548,-0.0548,-0.0548,-0.0579,-0.058,-0.0581,-0.0583,0,0,-0.0584,-0.0584,0,0,0,0,0,0,0,0,-0.0496,-0.0498,-0.0512,-0.0514,-0.0516,-0.0537,-0.0536,-0.0549,-0.0548,-0.0534,-0.0548,-0.0548,-0.0566,-0.0568,-0.0571,-0.0584,-0.0585,-0.0584,-0.0585,-0.0585,-0.0585,0,0,0,0,0,0,0,-0.0495,-0.0497,-0.0512,-0.0513,-0.0515,-0.0528,-0.053,-0.0539,-0.0547,-0.0535,-0.0537,-0.0543,-0.0567,-0.057,-0.0572,-0.0586,-0.0584,-0.0585,-0.0585,-0.0586,-0.0669,-0.067,0,0,0,0,0,0,-0.0493,-0.0496,-0.0511,-0.0513,-0.0508,-0.0528,-0.053,-0.0529,-0.0547,-0.0551,-0.0542,-0.0543,-0.0568,-0.0571,-0.0573,-0.0625,-0.0585,-0.0586,-0.0586,-0.0667,-0.0669,-0.0671,0,0,0,0,0,0,-0.0492,-0.0493,-0.051,-0.0506,-0.051,-0.0528,-0.0526,-0.0529,-0.0543,-0.0553,-0.0556,-0.0554,-0.0569,-0.0572,-0.0606,-0.0625,-0.0586,-0.0587,-0.0665,-0.0668,-0.067,-0.0698,0,0,0,0,0,0,-0.0491,-0.0493,-0.0489,-0.0506,-0.051,-0.0528,-0.0527,-0.053,-0.0546,-0.0548,-0.0564,-0.0566,-0.0569,-0.0604,-0.0607,-0.0626,-0.0588,-0.0663,-0.0666,-0.0669,-0.0695,-0.0701,-0.0706,0,0,0,0,0,-0.049,-0.0486,-0.0489,-0.0491,-0.0505,-0.0529,-0.0532,-0.0545,-0.0546,-0.0557,-0.0577,-0.0566,-0.0625,-0.0606,-0.0609,-0.0628,-0.0662,-0.0665,-0.0669,-0.0693,-0.07,-0.0706,0,0,0,0,0,0,-0.0474,-0.0487,-0.0491,-0.049,-0.0513,-0.0532,-0.0539,-0.055,-0.0573,-0.0578,-0.0584,-0.0589,-0.0626,-0.0627,-0.0607,-0.0664,-0.0642,-0.0646,-0.066,-0.0666,-0.0672,-0.0665,-0.0589,0,0,0,0,0,-0.0468,-0.0468,-0.0491,-0.0491,-0.0502,-0.0522,-0.0532,-0.0548,-0.0571,-0.0581,-0.0597,-0.0618,-0.0641,-0.0654,-0.0673,-0.07,-0.0693,-0.0717,-0.0723,-0.0727,-0.0726,-0.0728,-0.0733,-0.0682,-0.0682,-0.0682,0,0,-0.0462,-0.0469,-0.0469,-0.0488,-0.0503,-0.0532,-0.0529,-0.0554,-0.0583,-0.0581,-0.0624,-0.0637,-0.0654,-0.0691,-0.0707,-0.0694,-0.0743,-0.0732,-0.0735,-0.0731,-0.0732,-0.0737,-0.0741,-0.0685,-0.0684,-0.0684,0,0,-0.0457,-0.0457,-0.0463,-0.0486,-0.0517,-0.0538,-0.0549,-0.0583,-0.0602,-0.0651,-0.0654,-0.0679,-0.0723,-0.073,-0.0741,-0.0788,-0.0772,-0.08,-0.082,-0.0823,-0.0826,-0.0829,-0.0841,-0.0844,-0.0802,-0.0802,-0.0802,0,-0.045,-0.046,-0.047,-0.0493,-0.0517,-0.0544,-0.0574,-0.06,-0.0645,-0.0667,-0.0676,-0.0734,-0.0742,-0.0771,-0.0791,-0.0797,-0.0801,-0.079,-0.0828,-0.083,-0.0833,-0.0844,-0.0847,-0.0804,-0.0804,-0.0804,-0.0803,0,-0.0454,-0.0474,-0.0482,-0.052,-0.055,-0.0579,-0.0624,-0.0662,-0.0697,-0.0722,-0.0771,-0.0785,-0.0817,-0.0825,-0.0825,-0.0848,-0.0847,-0.0832,-0.0804,-0.0839,-0.0849,-0.0852,-0.0807,-0.0806,-0.0805,-0.0805,0,0,-0.0414,-0.0473,-0.0478,-0.0514,-0.0569,-0.0602,-0.0657,-0.0713,-0.0758,-0.0795,-0.084,-0.087,-0.087,-0.0881,-0.0875,-0.0875,-0.0897,-0.0864,-0.0864,-0.0864,-0.0914,-0.0873,-0.0872,-0.0888,-0.0888,-0.0888,-0.0918,0,-0.0418,-0.0454,-0.0494,-0.0561,-0.059,-0.0653,-0.071,-0.0767,-0.0815,-0.0867,-0.0873,-0.0913,-0.0892,-0.0911,-0.0907,-0.0895,-0.0905,-0.0891,-0.089,-0.089,-0.0838,-0.0874,-0.089,-0.0921,-0.0921,-0.0922,-0.0922,0,-0.0408,-0.0439,-0.0481,-0.0593,-0.0616,-0.0672,-0.0773,-0.0829,-0.0898,-0.0935,-0.096,-0.0969,-0.0971,-0.0953,-0.0945,-0.0938,-0.0935,-0.0924,-0.0925,-0.0874,-0.0854,-0.0876,-0.0927,-0.0927,-0.0927,-0.0926,-0.0926,0,-0.0354,-0.0444,-0.0475,-0.0505,-0.062,-0.0679,-0.0757,-0.0845,-0.0904,-0.0965,-0.1005,-0.101,-0.1018,-0.1004,-0.0985,-0.097,-0.098,-0.0953,-0.0918,-0.0915,-0.0928,-0.0925,-0.0963,-0.0963,-0.0963,-0.0963,-0.0962,0,-0.0332,-0.0375,-0.0462,-0.0483,-0.0571,-0.0664,-0.0768,-0.0842,-0.094,-0.1009,-0.1025,-0.1052,-0.1031,-0.1034,-0.1009,-0.0973,-0.1,-0.0927,-0.0919,-0.0944,-0.0941,-0.0931,-0.0927,-0.0964,-0.0963,-0.0963,-0.0963,0,-0.0273,-0.0317,-0.0366,-0.0483,-0.0541,-0.0598,-0.0784,-0.0862,-0.0947,-0.1033,-0.1052,-0.1085,-0.1075,-0.1065,-0.1046,-0.1002,-0.0976,-0.0966,-0.1013,-0.1006,-0.0905,-0.0902,-0.0913,-0.0912,-0.0911,-0.091,-0.0909,0,-0.0249,-0.0251,-0.0345,-0.0388,-0.0453,-0.0574,-0.0679,-0.0834,-0.0921,-0.1044,-0.1077,-0.1099,-0.1109,-0.1036,-0.1025,-0.0988,-0.0973,-0.0966,-0.0912,-0.0908,-0.0899,-0.0898,-0.0897,-0.0908,-0.0907,-0.0907,-0.0907,0,-0.0196,-0.0203,-0.0236,-0.0304,-0.0406,-0.0555,-0.0718,-0.0779,-0.0957,-0.1032,-0.1071,-0.1059,-0.1051,-0.0998,-0.099,-0.0959,-0.0964,-0.0954,-0.0955,-0.0904,-0.0901,-0.0894,-0.0894,-0.0903,-0.0904,-0.0904,-0.0904,0,-0.0148,-0.0136,-0.015,-0.0221,-0.0346,-0.0508,-0.0618,-0.0758,-0.0861,-0.1016,-0.1016,-0.1028,-0.1053,-0.0986,-0.0974,-0.0944,-0.091,-0.0872,-0.0876,-0.088,-0.0851,-0.0841,-0.0823,0,0,0,0,0,-0.0104,-0.0074,-0.01,-0.0188,-0.0317,-0.0415,-0.0635,-0.0751,-0.0916,-0.093,-0.0984,-0.0978,-0.0944,-0.0929,-0.0883,-0.0942,-0.0908,-0.0885,-0.0865,-0.0883,-0.0887,-0.0853,0,0,0,0,0,0,-0.007,-0.0056,-0.0045,-0.0139,-0.0221,-0.0403,-0.0547,-0.0684,-0.0714,-0.0842,-0.0813,-0.0896,-0.0855,-0.0926,-0.0839,-0.0844,-0.0813,-0.0902,-0.09,-0.0881,-0.0885,-0.0888,-0.0854,0,0,0,0,0]},{"header":{"parameterUnit":"m.s-1","parameterCategory":2,"la1":30.2991,"la2":30.254,"lo1":-89.0895,"lo2":-89.0444,"dy":0.0017,"dx":0.0017,"nx":28,"ny":28,"refTime":"2023-09-24T09:00:00:Z","depth":"4","parameterNumber":3,"parameterNumberName":"V-component_of_CURRENTS"},"data":[0,0,0,0,0,0,0,0,0,0,0,0,0,0,0,0,0,0,0,0,0,0,0,0,0,0,0,0,0,0,0,0,0,0,0,0,0,0,0,0,0,0,0,0,0,0,0,0,0,0,0,0,0,0,0,0,0,0,-0.0144,-0.0144,0,-0.0151,-0.0151,-0.0151,-0.0136,-0.0135,-0.0135,-0.0134,-0.0104,-0.0103,-0.0103,0,0,0,0,0,0,0,0,0,0,0,0,0,-0.0071,-0.0073,-0.0144,-0.0144,-0.0144,-0.0151,-0.0151,-0.0151,-0.0136,-0.0135,-0.0135,-0.0134,-0.0104,-0.0103,-0.0103,0,0,0,0,0,0,0,0,0,0,0,0,0,-0.0093,-0.0073,-0.0144,-0.0137,-0.0137,-0.0151,-0.0151,-0.0151,-0.0136,-0.0135,-0.0134,-0.0134,-0.0104,-0.0103,-0.0103,-0.0114,0,0,-0.0101,-0.0101,0,0,0,0,0,0,0,0,-0.0092,-0.0096,-0.0138,-0.0138,-0.0137,-0.0142,-0.0114,-0.0137,-0.0136,-0.0136,-0.0134,-0.0133,-0.0113,-0.0112,-0.0116,-0.0113,-0.0112,-0.0101,-0.0101,-0.0101,-0.0101,0,0,0,0,0,0,0,-0.009,-0.0095,-0.0147,-0.0138,-0.0138,-0.0118,-0.0121,-0.0118,-0.0128,-0.0136,-0.0135,-0.0136,-0.0113,-0.0116,-0.0115,-0.0111,-0.0101,-0.0101,-0.01,-0.01,-0.0073,-0.0072,0,0,0,0,0,0,-0.0093,-0.0094,-0.0146,-0.0147,-0.0112,-0.012,-0.0123,-0.0141,-0.0129,-0.0127,-0.0137,-0.0135,-0.0117,-0.0115,-0.0113,-0.0081,-0.0101,-0.01,-0.01,-0.0073,-0.0073,-0.0072,0,0,0,0,0,0,-0.0092,-0.0099,-0.0146,-0.0119,-0.0124,-0.0123,-0.0142,-0.0141,-0.0143,-0.013,-0.0127,-0.0139,-0.0117,-0.0114,-0.0101,-0.0081,-0.01,-0.0099,-0.0074,-0.0073,-0.0072,-0.0044,0,0,0,0,0,0,-0.009,-0.0098,-0.0112,-0.012,-0.0126,-0.0156,-0.0143,-0.0142,-0.0145,-0.0143,-0.0131,-0.0127,-0.0116,-0.0102,-0.0101,-0.0081,-0.0099,-0.0074,-0.0073,-0.0073,-0.0046,-0.0043,-0.004,0,0,0,0,0,-0.0088,-0.0111,-0.0114,-0.012,-0.0146,-0.0156,-0.0157,-0.0152,-0.0146,-0.015,-0.0133,-0.0128,-0.0096,-0.0102,-0.01,-0.0079,-0.0075,-0.0074,-0.0073,-0.0047,-0.0043,-0.004,0,0,0,0,0,0,-0.0087,-0.0112,-0.0115,-0.0145,-0.015,-0.0153,-0.016,-0.0156,-0.0148,-0.0144,-0.0127,-0.0123,-0.0105,-0.0101,-0.0108,-0.007,-0.0083,-0.0081,-0.0064,-0.006,-0.0057,-0.0041,-0.0099,0,0,0,0,0,-0.0094,-0.0119,-0.0131,-0.0154,-0.0159,-0.016,-0.0164,-0.0161,-0.0155,-0.0152,-0.0141,-0.0123,-0.0102,-0.0088,-0.0081,-0.0063,-0.0041,-0.0047,-0.0045,-0.0042,-0.0028,0.0024,0.0034,-0.0069,-0.0069,-0.0069,0,0,-0.0099,-0.0117,-0.013,-0.0155,-0.016,-0.0166,-0.0161,-0.0169,-0.0159,-0.0149,-0.0135,-0.0122,-0.0099,-0.0074,-0.0065,-0.0064,-0.0005,-0.0041,-0.0039,-0.0026,0.0027,0.0037,0.0046,-0.0069,-0.0069,-0.0069,0,0,-0.012,-0.0139,-0.0164,-0.0169,-0.0179,-0.0175,-0.0178,-0.0181,-0.0167,-0.0157,-0.0137,-0.0103,-0.0096,-0.0053,-0.0034,-0.0012,-0.0,-0.0021,0.0019,0.007,0.0079,0.0088,0.0118,0.0129,-0.0009,-0.0009,-0.0009,0,-0.0122,-0.0159,-0.0169,-0.0187,-0.0185,-0.0179,-0.0187,-0.0173,-0.0167,-0.0139,-0.0151,-0.0092,-0.0075,-0.0007,0.0005,-0.0002,0.0015,0.0006,0.0075,0.0084,0.0093,0.0122,0.0134,-0.0007,-0.0008,-0.0008,-0.0008,0,-0.0155,-0.0181,-0.0193,-0.0211,-0.0207,-0.0216,-0.0196,-0.0178,-0.0161,-0.0136,-0.0083,-0.0056,-0.001,-0.0,0.0011,0.0085,0.0072,0.0065,0.0071,0.0105,0.0133,0.0145,-0.0005,-0.0006,-0.0006,-0.0007,0,0,-0.0164,-0.021,-0.0211,-0.022,-0.0219,-0.0217,-0.0185,-0.0147,-0.0108,-0.0086,-0.0031,0.0021,0.0044,0.0068,0.0091,0.0144,0.0216,0.0132,0.0134,0.0169,0.0314,0.0241,0.0247,0.0218,0.0221,0.0223,0.0306,0,-0.0183,-0.023,-0.0232,-0.0243,-0.026,-0.0223,-0.0187,-0.0141,-0.0101,-0.0047,0.0018,0.0059,0.0068,0.009,0.015,0.0192,0.025,0.0193,0.027,0.0272,0.021,0.026,0.023,0.0315,0.0318,0.032,0.0321,0,-0.0204,-0.0236,-0.0271,-0.0257,-0.0254,-0.0244,-0.017,-0.0137,-0.0044,-0.0012,0.0057,0.0091,0.0182,0.0168,0.029,0.0248,0.029,0.0323,0.0326,0.0261,0.0223,0.0275,0.0343,0.0342,0.034,0.0339,0.0337,0,-0.0212,-0.0243,-0.0273,-0.0276,-0.0267,-0.0242,-0.0208,-0.0125,-0.0088,0.0008,0.0034,0.0143,0.0183,0.0264,0.0321,0.0314,0.0433,0.0431,0.0413,0.0408,0.0435,0.0425,0.0529,0.0529,0.0529,0.0529,0.0529,0,-0.0227,-0.0242,-0.0284,-0.0301,-0.0293,-0.026,-0.0214,-0.0161,-0.0087,-0.0052,0.0044,0.0085,0.0208,0.0279,0.034,0.0401,0.0451,0.0436,0.0434,0.0441,0.0431,0.0443,0.0432,0.0532,0.0531,0.0531,0.053,0,-0.023,-0.0266,-0.0304,-0.0315,-0.0311,-0.0301,-0.0251,-0.0212,-0.0142,-0.0098,-0.0075,0.0053,0.0144,0.0244,0.0373,0.0408,0.0481,0.0488,0.0478,0.0471,0.0424,0.0413,0.0506,0.0504,0.0503,0.0501,0.05,0,-0.0237,-0.0269,-0.0326,-0.035,-0.0361,-0.0343,-0.032,-0.0252,-0.0226,-0.0131,-0.0118,-0.0008,0.0069,0.0215,0.032,0.0438,0.0442,0.0488,0.0482,0.0437,0.0427,0.0418,0.0409,0.0498,0.0498,0.0497,0.0497,0,-0.0247,-0.0282,-0.0319,-0.0381,-0.0394,-0.0393,-0.0368,-0.0369,-0.0295,-0.0237,-0.0154,-0.0055,0.0049,0.0188,0.0269,0.0353,0.0467,0.0474,0.0478,0.0473,0.0429,0.0418,0.0411,0.0492,0.0493,0.0493,0.0494,0,-0.0249,-0.0283,-0.0347,-0.0378,-0.0418,-0.0441,-0.0428,-0.0392,-0.0354,-0.0268,-0.0243,-0.0102,0.0005,0.0142,0.0216,0.0289,0.0317,0.0347,0.0359,0.0365,0.0287,0.0208,0.0219,0,0,0,0,0,-0.0239,-0.0268,-0.0324,-0.0385,-0.0433,-0.0442,-0.045,-0.0433,-0.0393,-0.0351,-0.0298,-0.0204,-0.005,0.0054,0.0113,0.0174,0.0311,0.0244,0.0345,0.0466,0.0471,0.0395,0,0,0,0,0,0,-0.0238,-0.029,-0.0318,-0.0374,-0.0412,-0.0452,-0.0467,-0.0452,-0.0417,-0.0364,-0.0271,-0.0191,-0.0032,-0.0081,0.012,0.0147,0.0217,0.0336,0.0337,0.0462,0.0467,0.0472,0.0396,0,0,0,0,0]}]]